EZY43FL LEBL-EGMC

Flight info

Callsign EZY43FL
Flight time N/A
Altitude 32000
Route NATPI DCT EVNAM/N0430F340 DCT TUPAR UN861 ANG DCT BULOX DCT ANGLO/N0413F330 UZ273 NEVIL
Aircraft A320/M-SDE3FGHIRWY/LB1

Departure

Time N/A
Airport Josep Tarradellas Barcelona-El Prat Airport (LEBL)

Arrival

Time 2026-04-15 14:55
Airport London Southend Airport (EGMC)
Time Latitude Longitude Altitude Speed Heading
2026-04-15 14:24 49.36891 -0.58360 36088 ft 485 kts
2026-04-15 14:25 49.43571 -0.56842 36099 ft 485 kts
2026-04-15 14:25 49.50248 -0.55313 36095 ft 485 kts
2026-04-15 14:26 49.56944 -0.53785 36099 ft 487 kts
2026-04-15 14:26 49.63664 -0.52241 36082 ft 489 kts
2026-04-15 14:27 49.70410 -0.50690 36085 ft 491 kts
2026-04-15 14:27 49.77168 -0.49138 36099 ft 492 kts
2026-04-15 14:28 49.83942 -0.47561 36088 ft 492 kts
2026-04-15 14:28 49.90669 -0.45451 36082 ft 498 kts 16°
2026-04-15 14:29 49.96862 -0.40573 36082 ft 503 kts 36°
2026-04-15 14:29 50.02385 -0.33908 35925 ft 504 kts 38°
2026-04-15 14:29 50.05153 -0.30544 35757 ft 505 kts 38°
2026-04-15 14:30 50.07929 -0.27167 35588 ft 505 kts 38°
2026-04-15 14:30 50.10698 -0.23797 35405 ft 506 kts 38°
2026-04-15 14:30 50.13440 -0.20350 35166 ft 506 kts 44°
2026-04-15 14:30 50.15809 -0.16314 34927 ft 503 kts 57°
2026-04-15 14:31 50.17713 -0.11760 34686 ft 501 kts 62°
2026-04-15 14:31 50.19543 -0.07129 34479 ft 502 kts 62°
2026-04-15 14:31 50.21378 -0.02490 34247 ft 502 kts 63°
2026-04-15 14:31 50.23215 0.02152 33941 ft 501 kts 63°
2026-04-15 14:32 50.25043 0.06773 33666 ft 500 kts 63°
2026-04-15 14:32 50.26868 0.11395 33396 ft 500 kts 63°
2026-04-15 14:32 50.28689 0.16017 33091 ft 498 kts 63°
2026-04-15 14:32 50.30495 0.20608 32492 ft 495 kts 63°
2026-04-15 14:33 50.32289 0.25173 31909 ft 492 kts 63°
2026-04-15 14:33 50.34072 0.29719 31295 ft 489 kts 63°
2026-04-15 14:33 50.35846 0.34252 30692 ft 488 kts 63°
2026-04-15 14:33 50.37591 0.38731 30045 ft 487 kts 63°
2026-04-15 14:34 50.39346 0.43256 29375 ft 484 kts 63°
2026-04-15 14:34 50.41336 0.47573 28763 ft 497 kts 49°
2026-04-15 14:34 50.43803 0.51418 28507 ft 501 kts 47°
2026-04-15 14:34 50.46293 0.55239 28252 ft 500 kts 47°
2026-04-15 14:35 50.48776 0.59048 27930 ft 497 kts 47°
2026-04-15 14:35 50.51246 0.62838 27179 ft 495 kts 47°
2026-04-15 14:35 50.53702 0.66612 26479 ft 493 kts 47°
2026-04-15 14:35 50.56147 0.70376 25769 ft 491 kts 47°
2026-04-15 14:36 50.58581 0.74129 25076 ft 489 kts 47°
2026-04-15 14:36 50.60999 0.77869 24378 ft 487 kts 47°
2026-04-15 14:36 50.63404 0.81593 23704 ft 484 kts 47°
2026-04-15 14:36 50.65800 0.85310 23006 ft 481 kts 47°
2026-04-15 14:37 50.68169 0.88987 22388 ft 475 kts 47°
2026-04-15 14:37 50.70510 0.92621 21808 ft 470 kts 47°
2026-04-15 14:37 50.72824 0.96224 21252 ft 463 kts 46°
2026-04-15 14:37 50.75102 0.99780 20706 ft 458 kts 46°
2026-04-15 14:38 50.77356 1.03303 20143 ft 454 kts 46°
2026-04-15 14:38 50.79592 1.06805 19583 ft 451 kts 46°
2026-04-15 14:38 50.81809 1.10283 19009 ft 448 kts 46°
2026-04-15 14:38 50.84021 1.13752 18426 ft 447 kts 46°
2026-04-15 14:39 50.86280 1.17083 17968 ft 441 kts 38°
2026-04-15 14:39 50.88911 1.19520 17398 ft 437 kts 21°
2026-04-15 14:39 50.91761 1.21134 16803 ft 434 kts 18°
2026-04-15 14:39 50.94605 1.22679 16258 ft 431 kts 17°
2026-04-15 14:40 50.97431 1.24200 15719 ft 427 kts 17°
2026-04-15 14:40 51.00231 1.25702 15198 ft 423 kts 17°
2026-04-15 14:40 51.03012 1.27199 14673 ft 420 kts 17°
2026-04-15 14:40 51.05769 1.28695 14157 ft 417 kts 17°
2026-04-15 14:41 51.08496 1.30183 13616 ft 413 kts 17°
2026-04-15 14:41 51.10294 1.31166 13233 ft 411 kts 17°
2026-04-15 14:41 51.12984 1.32637 12667 ft 407 kts 17°
2026-04-15 14:41 51.15649 1.34097 12114 ft 403 kts 17°
2026-04-15 14:42 51.19138 1.36009 11381 ft 398 kts 17°
2026-04-15 14:42 51.21743 1.37432 10812 ft 394 kts 17°
2026-04-15 14:42 51.24330 1.38839 10264 ft 390 kts 15°
2026-04-15 14:42 51.26925 1.39671 10064 ft 371 kts 359°
2026-04-15 14:43 51.28628 1.39586 9978 ft 355 kts 347°
2026-04-15 14:43 51.30925 1.38614 9845 ft 332 kts 332°
2026-04-15 14:43 51.33010 1.37222 9729 ft 318 kts 331°
2026-04-15 14:43 51.35012 1.35878 9582 ft 306 kts 331°
2026-04-15 14:44 51.36955 1.34567 9327 ft 302 kts 330°
2026-04-15 14:44 51.38881 1.33256 9056 ft 300 kts 330°
2026-04-15 14:44 51.40794 1.31946 8795 ft 299 kts 330°
2026-04-15 14:44 51.42710 1.30637 8529 ft 298 kts 330°
2026-04-15 14:45 51.44611 1.29345 8271 ft 296 kts 330°
2026-04-15 14:45 51.46444 1.27915 8025 ft 289 kts 320°
2026-04-15 14:45 51.48085 1.26098 7740 ft 285 kts 317°
2026-04-15 14:45 51.49661 1.24262 7346 ft 282 kts 317°
2026-04-15 14:46 51.51241 1.22409 6948 ft 281 kts 317°
2026-04-15 14:46 51.52810 1.20560 6550 ft 279 kts 316°
2026-04-15 14:46 51.54370 1.18722 6146 ft 277 kts 316°
2026-04-15 14:46 51.55917 1.16898 5735 ft 275 kts 316°
2026-04-15 14:47 51.57456 1.15089 5330 ft 273 kts 316°
2026-04-15 14:47 51.58975 1.13310 5076 ft 265 kts 316°
2026-04-15 14:47 51.60439 1.11616 4947 ft 253 kts 316°
2026-04-15 14:47 51.61839 1.10017 4813 ft 241 kts 316°
2026-04-15 14:48 51.63184 1.08501 4687 ft 231 kts 316°
2026-04-15 14:48 51.64477 1.07058 4559 ft 222 kts 316°
2026-04-15 14:48 51.65725 1.05680 4426 ft 214 kts 316°
2026-04-15 14:48 51.66745 1.04124 4296 ft 191 kts 291°
2026-04-15 14:49 51.67164 1.02198 4167 ft 179 kts 271°
2026-04-15 14:49 51.67303 1.00228 4040 ft 176 kts 267°
2026-04-15 14:49 51.67397 0.98264 3914 ft 175 kts 266°
2026-04-15 14:49 51.67483 0.96307 3785 ft 175 kts 266°
2026-04-15 14:50 51.67561 0.94348 3582 ft 174 kts 263°
2026-04-15 14:50 51.67338 0.92499 3396 ft 166 kts 242°
2026-04-15 14:50 51.66725 0.90958 3193 ft 163 kts 233°
2026-04-15 14:50 51.66062 0.89474 2977 ft 163 kts 233°
2026-04-15 14:51 51.65401 0.87993 2763 ft 163 kts 233°
2026-04-15 14:51 51.64740 0.86513 2545 ft 163 kts 232°
2026-04-15 14:51 51.64085 0.85045 2357 ft 159 kts 232°
2026-04-15 14:51 51.63451 0.83627 2118 ft 153 kts 231°
2026-04-15 14:52 51.62840 0.82259 1909 ft 148 kts 231°
2026-04-15 14:52 51.62249 0.80940 1712 ft 143 kts 231°
2026-04-15 14:52 51.61681 0.79670 1518 ft 137 kts 232°
2026-04-15 14:52 51.61138 0.78459 1336 ft 131 kts 231°
2026-04-15 14:53 51.60619 0.77300 1183 ft 127 kts 231°
2026-04-15 14:53 51.60101 0.76145 994 ft 127 kts 231°
2026-04-15 14:53 51.59584 0.74993 810 ft 129 kts 232°
2026-04-15 14:53 51.59062 0.73825 627 ft 130 kts 231°
2026-04-15 14:54 51.58537 0.72657 466 ft 126 kts 229°
2026-04-15 14:54 51.58025 0.71522 289 ft 127 kts 232°
2026-04-15 14:54 51.57519 0.70385 112 ft 123 kts 230°
2026-04-15 14:54 51.57040 0.69329 57 ft 102 kts 234°
2026-04-15 14:55 51.56777 0.68743 57 ft 41 kts 234°
2026-04-15 14:55 51.56630 0.68414 55 ft 32 kts 234°
2026-04-15 14:55 51.56555 0.68261 54 ft 10 kts 219°
2026-04-15 14:55 51.56514 0.68208 54 ft 4 kts 265°
2026-04-15 14:56 51.56533 0.68209 53 ft 4 kts 31°
2026-04-15 14:56 51.56569 0.68281 55 ft 12 kts 58°
2026-04-15 14:56 51.56633 0.68421 55 ft 20 kts 53°
2026-04-15 14:56 51.56720 0.68611 51 ft 20 kts 54°
2026-04-15 14:57 51.56800 0.68789 57 ft 19 kts 54°
2026-04-15 14:57 51.56871 0.68947 58 ft 17 kts 53°
2026-04-15 14:57 51.56891 0.69046 58 ft 7 kts 130°
2026-04-15 14:57 51.56838 0.69115 55 ft 11 kts 116°
2026-04-15 14:58 51.56868 0.69224 54 ft 13 kts 54°
2026-04-15 14:58 51.56901 0.69366 54 ft 14 kts 80°
2026-04-15 14:58 51.56916 0.69515 54 ft 13 kts 83°
2026-04-15 14:58 51.56912 0.69654 54 ft 12 kts 99°
2026-04-15 14:59 51.56898 0.69785 54 ft 12 kts 99°
2026-04-15 14:59 51.56883 0.69938 54 ft 16 kts 99°
2026-04-15 14:59 51.56877 0.70097 54 ft 12 kts 67°
2026-04-15 14:59 51.56929 0.70191 54 ft 9 kts 22°
2026-04-15 15:00 51.56967 0.70219 52 ft 5 kts 59°
2026-04-15 15:00 51.56966 0.70264 54 ft 4 kts 95°
2026-04-15 15:00 51.56965 0.70285 54 ft 1 kts 94°